Terminal Aerodrome Forecast
Issued by NWS

Current Version | Previous Version | Graphics & Text | Print | Product List | Glossary On
Versions: 1 2 3 4 5 6 7 8 9 10 11 12 13 14 15 16 17 18 19 20 21 22 23 24 25 26 27 28 29 30 31 32 33 34 35 36 37 38 39 40 41 42 43 44 45 46 47 48 49 50
000
FTUS41 KRNK 291830 AAA
TAFLWB
TAF AMD
KLWB 291830Z 2919/3018 27006KT P6SM VCSH SCT021 OVC090
     FM292000 26009G19KT 5SM TSRA SCT012 BKN035CB
     FM292200 00000KT P6SM SCT040 BKN250
     FM300400 00000KT 4SM BR SCT100 BKN250
     FM301000 00000KT 1/4SM FG OVC001
     FM301300 26005KT P6SM SCT012 BKN025=

USA.gov is the U.S. government's official web portal to all federal, state and local government web resources and services.